Content
SEND FEEDBACK

Daily
Averages
Monthly
Summary
United States of America

WAHWEAP, ARIZONA


Home > North America > United States > Arizona
Elevation: 3703 feet     Latitude: 36 59N     Longitude: 111 29W

WEATHER
 
SELECT A DAY
Number of Records: 198,441;   Date Range: 1/1/95 - 12/19/14
 
SHARE

PRINT THIS DATA

[ ← Previous Day ]
WEATHER ALMANAC - JULY 13, 2014
[ Next Day → ]
[ °C ]   °F
Weather ElementAverageHighLow
Temperature91.2 °F104 °F (2:53 pm)78.1 °F (1:53 am)
Dewpoint47.8 °F53.1 °F (2:53 pm)37 °F (8:53 am)
Humidity24.2 %40 % (4:53 am)11 % (1:53 pm)
Barometer29.86 in30.06 in (10:53 pm)29.75 in (5:53 pm)
Wind Speed5.4 mph9.2 mph (5:53 am)
Wind Gust17.3 mph (6:53 pm)
Weather ElementAverage
Visibility10 mi
Wind DirectionESE (120.4 °)

Weather ElementTotal
Precipitation---
Cooling Degree Days26.1 (Base 65)
Growing Degree Days41.1 (Base 50)
Averaged from 23 records on July 13, 2014
WEATHER CONDITIONS BREAKOUT
WIND DIRECTION BREAKOUT
WEATHER BY HOUR - JULY 13, 2014
[ °C ]   °F
Local TimeTemperatureDewpointHumidityBarometerVisibilityWind DirectionWind SpeedGust SpeedPrecipitationEventsConditions
12:53 AM89.1 °F42.1 °F19 %29.82 in10.0 miWSW (240°)4.6 mphClear
1:53 AM86.0 °F50.0 °F29 %29.85 in10.0 miSSW (210°)9.2 mph16.1 mphClear
2:53 AM82.9 °F51.1 °F33 %29.86 in10.0 miVariable5.8 mphPartly Cloudy
3:53 AM81.0 °F51.1 °F35 %29.88 in10.0 miSSE (160°)9.2 mphClear
4:53 AM78.1 °F52.0 °F40 %29.89 in10.0 miCalmClear
5:53 AM78.1 °F52.0 °F40 %29.91 in10.0 miSE (140°)6.9 mphClear
6:53 AM82.9 °F53.1 °F36 %29.93 in10.0 miSouth (170°)5.8 mphClear
7:53 AM84.9 °F52.0 °F32 %29.94 in10.0 miCalmClear
8:53 AM88.0 °F51.1 °F28 %29.94 in10.0 miCalmClear
9:53 AM91.0 °F51.1 °F25 %29.91 in10.0 miVariable3.5 mphClear
10:53 AM93.0 °F50.0 °F23 %29.90 in10.0 miVariable3.5 mphClear
11:53 AM97.0 °F48.9 °F19 %29.88 in10.0 miNorthClear
12:53 PM100.9 °F48.0 °F17 %29.85 in10.0 miNorth (360°)8.1 mphClear
1:53 PM100.9 °F45.0 °F15 %29.83 in10.0 miNorth (360°)5.8 mphClear
2:53 PM104.0 °F45.0 °F14 %29.80 in10.0 miENE (60°)9.2 mphClear
4:53 PM102.0 °F41.0 °F12 %29.76 in10.0 miVariable4.6 mph17.3 mphClear
5:53 PM100.9 °F42.1 °F13 %29.76 in10.0 miEast (80°)8.1 mphClear
6:53 PM100.0 °F37.0 °F11 %29.75 in10.0 miNNE (30°)3.5 mphClear
7:53 PM98.1 °F37.9 °F12 %29.76 in10.0 miNorth (360°)4.6 mphClear
8:53 PM91.9 °F48.9 °F23 %29.79 in10.0 miVariable4.6 mphClear
9:53 PM91.0 °F48.0 °F23 %29.81 in10.0 miSouth (170°)6.9 mphClear
10:53 PM87.8 °F51.8 °F29 %30.06 in10.0 miSW (220°)8.1 mphClear
11:53 PM87.1 °F50.0 °F28 %29.81 in10.0 miSSW (210°)6.9 mphClear
Hourly data recorded from KPGA, located miles away from Wahweap, Arizona







STORIES FROM OUR PARTNERS